Location: La Savane
(18.0962°N, 63.0646°W)
Time: 09:24:56
(UTC+00:00)

SAR-Lupe-4 - Pass Details

Date: 29 October 2020
Orbit: 481 x 484 km, 98.2° (Epoch: 22 November)

Event Time Altitude Azimuth Distance (km) Brightness Sun altitude
Rises 21:54:20 0° 9° (N) 2,534 7.0 -3.9°
Reaches altitude 10° 21:56:23 10° 8° (N) 1,654 6.1 -4.4°
Maximum altitude 21:59:56 75° 283° (WNW) 500 3.8 -5.2°
Drops below altitude 10° 22:03:28 10° 197° (SSW) 1,652 6.7 -6.0°
Sets 22:05:31 0° 195° (SSW) 2,530 7.6 -6.5°
